Location: Ida Center
(41.8662°N, 83.5713°W)
Time: 11:19:16
(UTC+00:00)

Okean-O - Pass Details

Date: 17 November 2019
Orbit: 639 x 641 km, 98.2° (Epoch: 06 December)

Event Time Altitude Azimuth Distance (km) Brightness Sun altitude
Rises 22:43:03 0° 144° (SE) 2,934 5.9 -6.2°
Reaches altitude 10° 22:45:22 10° 136° (SE) 2,029 5.0 -6.6°
Maximum altitude 22:49:24 36° 70° (ENE) 1,014 3.2 -7.3°
Drops below altitude 10° 22:53:28 10° 4° (N) 2,041 5.0 -8.0°
Sets 22:55:48 0° 356° (N) 2,955 5.9 -8.4°
